| time (UTC) | temp F | wind direction | speed MPH | gust MPH | rain 1hr in | rain 24hr in | rain mn in | humidity % | barometer mb |
| 20260504231538 | 68 | 254 | 3.0 | 7.0 | 0.00 | 0.00 | 0.00 | 34 | 1005.1 |
| 20260504231008 | 68 | 245 | 2.0 | 6.0 | 0.00 | 0.00 | 0.00 | 35 | 1005.1 |
| 20260504230510 | 68 | 245 | 1.0 | 8.0 | 0.00 | 0.00 | 0.00 | 34 | 1004.9 |
| 20260504230030 | 69 | 235 | 3.0 | 10.0 | 0.00 | 0.00 | 0.00 | 34 | 1004.9 |
| 20260504225518 | 69 | 238 | 5.0 | 10.0 | 0.00 | 0.00 | 0.00 | 33 | 1004.8 |
| 20260504225010 | 69 | 247 | 2.0 | 6.0 | 0.00 | 0.00 | 0.00 | 33 | 1004.7 |
| 20260504224532 | 69 | 251 | 2.0 | 7.0 | 0.00 | 0.00 | 0.00 | 33 | 1004.6 |
| 20260504224010 | 69 | 242 | 3.0 | 9.0 | 0.00 | 0.00 | 0.00 | 32 | 1004.7 |
| 20260504223511 | 69 | 219 | 3.0 | 11.0 | 0.00 | 0.00 | 0.00 | 33 | 1004.7 |
| 20260504223030 | 69 | 283 | 4.0 | 11.0 | 0.00 | 0.00 | 0.00 | 32 | 1004.5 |
| 20260504222508 | 69 | 237 | 2.0 | 10.0 | 0.00 | 0.00 | 0.00 | 33 | 1004.5 |
| 20260504222014 | 69 | 245 | 2.0 | 10.0 | 0.00 | 0.00 | 0.00 | 32 | 1004.5 |
| 20260504221530 | 69 | 252 | 2.0 | 9.0 | 0.00 | 0.00 | 0.00 | 34 | 1004.6 |
| 20260504221009 | 69 | 245 | 3.0 | 9.0 | 0.00 | 0.00 | 0.00 | 33 | 1004.8 |
| 20260504220514 | 70 | 265 | 4.0 | 12.0 | 0.00 | 0.00 | 0.00 | 32 | 1004.6 |
| 20260504220031 | 70 | 267 | 3.0 | 12.0 | 0.00 | 0.00 | 0.00 | 31 | 1004.7 |
| 20260504215513 | 70 | 294 | 1.0 | 11.0 | 0.00 | 0.00 | 0.00 | 32 | 1004.7 |
| 20260504215017 | 70 | 241 | 4.0 | 11.0 | 0.00 | 0.00 | 0.00 | 31 | 1004.7 |
| 20260504214537 | 70 | 243 | 4.0 | 14.0 | 0.00 | 0.00 | 0.00 | 31 | 1004.7 |
| 20260504214012 | 70 | 0 | 2.0 | 14.0 | 0.00 | 0.00 | 0.00 | 32 | 1004.7 |
| 20260504213514 | 71 | 259 | 3.0 | 13.0 | 0.00 | 0.00 | 0.00 | 31 | 1004.6 |
| 20260504213030 | 71 | 0 | 3.0 | 14.0 | 0.00 | 0.00 | 0.00 | 31 | 1004.5 |
| 20260504212515 | 71 | 254 | 8.0 | 14.0 | 0.00 | 0.00 | 0.00 | 30 | 1004.5 |
| 20260504212010 | 71 | 245 | 5.0 | 14.0 | 0.00 | 0.00 | 0.00 | 31 | 1004.7 |
| 20260504211530 | 70 | 254 | 5.0 | 14.0 | 0.00 | 0.00 | 0.00 | 31 | 1004.5 |
| 20260504211009 | 70 | 259 | 6.0 | 14.0 | 0.00 | 0.00 | 0.00 | 32 | 1004.5 |
| 20260504210513 | 69 | 252 | 4.0 | 13.0 | 0.00 | 0.00 | 0.00 | 33 | 1004.4 |
| 20260504210030 | 69 | 258 | 2.0 | 11.0 | 0.00 | 0.00 | 0.00 | 34 | 1004.6 |
| 20260504205511 | 69 | 0 | 4.0 | 14.0 | 0.00 | 0.00 | 0.00 | 32 | 1004.5 |
| 20260504205015 | 69 | 238 | 5.0 | 15.0 | 0.00 | 0.00 | 0.00 | 32 | 1004.5 |
| 20260504204604 | 70 | 275 | 6.0 | 15.0 | 0.00 | 0.00 | 0.00 | 32 | 1004.4 |
| 20260504204013 | 71 | 247 | 5.0 | 15.0 | 0.00 | 0.00 | 0.00 | 31 | 1004.4 |
| 20260504203513 | 71 | 254 | 6.0 | 15.0 | 0.00 | 0.00 | 0.00 | 32 | 1004.5 |
| 20260504203032 | 71 | 268 | 8.0 | 15.0 | 0.00 | 0.00 | 0.00 | 31 | 1004.5 |
| 20260504202509 | 70 | 256 | 4.0 | 12.0 | 0.00 | 0.00 | 0.00 | 32 | 1004.4 |
| 20260504202014 | 71 | 251 | 6.0 | 12.0 | 0.00 | 0.00 | 0.00 | 31 | 1004.5 |
| 20260504201530 | 71 | 252 | 4.0 | 9.0 | 0.00 | 0.00 | 0.00 | 31 | 1004.4 |
| 20260504201008 | 71 | 299 | 4.0 | 11.0 | 0.00 | 0.00 | 0.00 | 33 | 1004.4 |
| 20260504200511 | 70 | 251 | 1.0 | 12.0 | 0.00 | 0.00 | 0.00 | 33 | 1004.5 |
| 20260504200035 | 70 | 278 | 3.0 | 13.0 | 0.00 | 0.00 | 0.00 | 32 | 1004.5 |
| 20260504195512 | 70 | 250 | 4.0 | 16.0 | 0.00 | 0.00 | 0.00 | 32 | 1004.5 |
| 20260504195013 | 70 | 281 | 8.0 | 22.0 | 0.00 | 0.00 | 0.00 | 31 | 1004.6 |
| 20260504194534 | 70 | 266 | 6.0 | 22.0 | 0.00 | 0.00 | 0.00 | 32 | 1004.7 |
| 20260504194011 | 69 | 254 | 9.0 | 22.0 | 0.00 | 0.00 | 0.00 | 32 | 1004.7 |
| 20260504193510 | 69 | 256 | 6.0 | 20.0 | 0.00 | 0.00 | 0.00 | 33 | 1004.7 |
| 20260504193033 | 68 | 255 | 10.0 | 20.0 | 0.00 | 0.00 | 0.00 | 32 | 1004.7 |
| 20260504192511 | 68 | 282 | 4.0 | 25.0 | 0.00 | 0.00 | 0.00 | 34 | 1004.7 |
| 20260504192014 | 69 | 257 | 10.0 | 25.0 | 0.00 | 0.00 | 0.00 | 32 | 1004.7 |
| 20260504191531 | 69 | 290 | 4.0 | 10.0 | 0.00 | 0.00 | 0.00 | 33 | 1004.8 |
| 20260504191008 | 69 | 259 | 2.0 | 14.0 | 0.00 | 0.00 | 0.00 | 33 | 1004.8 |
| 20260504190509 | 69 | 257 | 5.0 | 14.0 | 0.00 | 0.00 | 0.00 | 32 | 1004.8 |
| 20260504190035 | 69 | 253 | 3.0 | 12.0 | 0.00 | 0.00 | 0.00 | 33 | 1004.8 |
| 20260504185511 | 68 | 257 | 6.0 | 14.0 | 0.00 | 0.00 | 0.00 | 33 | 1004.8 |
| 20260504185012 | 68 | 254 | 4.0 | 18.0 | 0.00 | 0.00 | 0.00 | 33 | 1005.0 |
| 20260504184528 | 68 | 238 | 5.0 | 18.0 | 0.00 | 0.00 | 0.00 | 33 | 1004.8 |
| 20260504184045 | 68 | 234 | 8.0 | 18.0 | 0.00 | 0.00 | 0.00 | 32 | 1004.7 |
| 20260504183514 | 68 | 0 | 0.0 | 13.0 | 0.00 | 0.00 | 0.00 | 34 | 1004.8 |
| 20260504183030 | 68 | 246 | 4.0 | 13.0 | 0.00 | 0.00 | 0.00 | 33 | 1004.9 |
| 20260504182509 | 68 | 233 | 4.0 | 16.0 | 0.00 | 0.00 | 0.00 | 33 | 1004.9 |
| 20260504182013 | 67 | 258 | 8.0 | 16.0 | 0.00 | 0.00 | 0.00 | 32 | 1004.8 |
| 20260504181530 | 67 | 248 | 6.0 | 18.0 | 0.00 | 0.00 | 0.00 | 33 | 1004.8 |
| 20260504181009 | 67 | 262 | 8.0 | 19.0 | 0.00 | 0.00 | 0.00 | 31 | 1004.9 |
| 20260504180514 | 68 | 238 | 7.0 | 19.0 | 0.00 | 0.00 | 0.00 | 31 | 1004.6 |
| 20260504180030 | 68 | 293 | 9.0 | 20.0 | 0.00 | 0.00 | 0.00 | 31 | 1004.8 |
| 20260504175508 | 68 | 234 | 7.0 | 22.0 | 0.00 | 0.00 | 0.00 | 31 | 1004.9 |
| 20260504175011 | 69 | 253 | 5.0 | 22.0 | 0.00 | 0.00 | 0.00 | 32 | 1004.8 |
| 20260504174530 | 69 | 224 | 8.0 | 24.0 | 0.00 | 0.00 | 0.00 | 31 | 1005.0 |
| 20260504174009 | 68 | 231 | 7.0 | 25.0 | 0.00 | 0.00 | 0.00 | 31 | 1005.0 |
| 20260504173509 | 69 | 242 | 10.0 | 25.0 | 0.00 | 0.00 | 0.00 | 31 | 1005.1 |
| 20260504173029 | 69 | 245 | 6.0 | 18.0 | 0.00 | 0.00 | 0.00 | 32 | 1005.1 |
| 20260504172509 | 68 | 261 | 6.0 | 20.0 | 0.00 | 0.00 | 0.00 | 33 | 1005.0 |
| 20260504172015 | 68 | 266 | 9.0 | 20.0 | 0.00 | 0.00 | 0.00 | 31 | 1005.0 |
| 20260504171540 | 68 | 251 | 3.0 | 18.0 | 0.00 | 0.00 | 0.00 | 32 | 1005.0 |
| 20260504171010 | 67 | 195 | 9.0 | 24.0 | 0.00 | 0.00 | 0.00 | 31 | 1005.0 |
| 20260504170513 | 68 | 241 | 9.0 | 24.0 | 0.00 | 0.00 | 0.00 | 31 | 1005.0 |
| 20260504151009 | 64 | 252 | 9.0 | 19.0 | 0.00 | 0.00 | 0.00 | 39 | 1006.0 |
| 20260504150515 | 63 | 221 | 6.0 | 22.0 | 0.00 | 0.00 | 0.00 | 40 | 1005.9 |
| 20260504141012 | 59 | 203 | 7.0 | 16.0 | 0.00 | 0.00 | 0.00 | 45 | 1007.0 |
| 20260504140512 | 59 | 263 | 4.0 | 17.0 | 0.00 | 0.00 | 0.00 | 46 | 1007.0 |
| 20260504130513 | 55 | 240 | 3.0 | 10.0 | 0.00 | 0.00 | 0.00 | 53 | 1007.7 |
| 20260504110509 | 44 | 244 | 2.0 | 5.0 | 0.00 | 0.00 | 0.00 | 66 | 1008.7 |
| 20260504100513 | 42 | 0 | 0.0 | 0.0 | 0.00 | 0.00 | 0.00 | 70 | 1008.3 |
| 20260504081533 | 40 | 0 | 1.0 | 4.0 | 0.00 | 0.00 | 0.00 | 74 | 1008.4 |
| 20260504081009 | 40 | 261 | 1.0 | 3.0 | 0.00 | 0.00 | 0.00 | 75 | 1008.3 |
| 20260504080510 | 40 | 261 | 1.0 | 3.0 | 0.00 | 0.00 | 0.00 | 76 | 1008.2 |
| 20260504050512 | 36 | 0 | 0.0 | 0.0 | 0.00 | 0.00 | 0.00 | 75 | 1008.0 |
| 20260504045511 | 36 | 0 | 0.0 | 3.0 | 0.00 | 0.00 | 0.00 | 75 | 1008.1 |
| 20260504045013 | 36 | 261 | 1.0 | 3.0 | 0.00 | 0.00 | 0.00 | 75 | 1008.0 |
| 20260504044538 | 36 | 261 | 1.0 | 4.0 | 0.00 | 0.00 | 0.00 | 75 | 1008.0 |
| 20260504044011 | 37 | 261 | 1.0 | 4.0 | 0.00 | 0.00 | 0.00 | 75 | 1008.1 |
| 20260504043512 | 37 | 261 | 1.0 | 3.0 | 0.00 | 0.00 | 0.00 | 74 | 1008.0 |
| 20260504043032 | 37 | 261 | 1.0 | 2.0 | 0.00 | 0.00 | 0.00 | 74 | 1008.1 |
| 20260504042509 | 37 | 261 | 0.0 | 3.0 | 0.00 | 0.00 | 0.00 | 74 | 1008.0 |
| 20260504042010 | 37 | 261 | 0.0 | 3.0 | 0.00 | 0.00 | 0.00 | 74 | 1008.1 |
| 20260504041533 | 37 | 261 | 0.0 | 4.0 | 0.00 | 0.00 | 0.00 | 73 | 1008.0 |
| 20260504041011 | 37 | 261 | 1.0 | 4.0 | 0.00 | 0.00 | 0.00 | 73 | 1007.9 |
| 20260504040513 | 38 | 278 | 1.0 | 4.0 | 0.00 | 0.00 | 0.00 | 73 | 1008.0 |
| 20260504040030 | 38 | 277 | 2.0 | 3.0 | 0.00 | 0.00 | 0.00 | 73 | 1007.9 |
| 20260504035510 | 38 | 277 | 1.0 | 4.0 | 0.00 | 0.00 | 0.00 | 73 | 1007.9 |
| 20260504035015 | 38 | 278 | 1.0 | 5.0 | 0.00 | 0.00 | 0.00 | 73 | 1007.9 |
| 20260504034535 | 38 | 278 | 2.0 | 5.0 | 0.00 | 0.00 | 0.00 | 72 | 1008.0 |
| 20260504034010 | 38 | 323 | 1.0 | 3.0 | 0.00 | 0.00 | 0.00 | 71 | 1007.9 |
| 20260504033512 | 38 | 323 | 1.0 | 3.0 | 0.00 | 0.00 | 0.00 | 70 | 1007.9 |
| 20260504033032 | 39 | 0 | 0.0 | 3.0 | 0.00 | 0.00 | 0.00 | 70 | 1007.8 |
| 20260504032509 | 39 | 323 | 1.0 | 3.0 | 0.00 | 0.00 | 0.00 | 69 | 1007.7 |
| 20260504032017 | 39 | 0 | 0.0 | 0.0 | 0.00 | 0.00 | 0.00 | 69 | 1007.7 |
| 20260504031532 | 39 | 0 | 0.0 | 0.0 | 0.00 | 0.00 | 0.00 | 69 | 1007.7 |
| 20260504031010 | 39 | 0 | 0.0 | 0.0 | 0.00 | 0.00 | 0.00 | 69 | 1007.7 |
| 20260504030511 | 39 | 0 | 0.0 | 0.0 | 0.00 | 0.00 | 0.00 | 69 | 1007.7 |
| 20260504030038 | 39 | 0 | 0.0 | 0.0 | 0.00 | 0.00 | 0.00 | 69 | 1007.7 |
| 20260504025510 | 39 | 0 | 0.0 | 0.0 | 0.00 | 0.00 | 0.00 | 68 | 1007.7 |
| 20260504025010 | 39 | 0 | 0.0 | 0.0 | 0.00 | 0.00 | 0.00 | 68 | 1007.7 |
| 20260504024530 | 39 | 0 | 0.0 | 0.0 | 0.00 | 0.00 | 0.00 | 68 | 1007.6 |
| 20260504024010 | 39 | 0 | 0.0 | 0.0 | 0.00 | 0.00 | 0.00 | 68 | 1007.7 |
| 20260504023511 | 39 | 0 | 0.0 | 0.0 | 0.00 | 0.00 | 0.00 | 67 | 1007.6 |
| 20260504023032 | 40 | 0 | 0.0 | 0.0 | 0.00 | 0.00 | 0.00 | 67 | 1007.6 |
| 20260504022509 | 40 | 0 | 0.0 | 0.0 | 0.00 | 0.00 | 0.00 | 67 | 1007.8 |
| 20260504022013 | 40 | 0 | 0.0 | 0.0 | 0.00 | 0.00 | 0.00 | 66 | 1007.8 |
| 20260504021533 | 40 | 0 | 0.0 | 0.0 | 0.00 | 0.00 | 0.00 | 65 | 1007.7 |
| 20260504021012 | 41 | 0 | 0.0 | 0.0 | 0.00 | 0.00 | 0.00 | 64 | 1007.7 |
| 20260504020511 | 41 | 0 | 0.0 | 0.0 | 0.00 | 0.00 | 0.00 | 63 | 1007.6 |
| 20260504020029 | 41 | 0 | 0.0 | 0.0 | 0.00 | 0.00 | 0.00 | 63 | 1007.6 |
| 20260504015509 | 42 | 0 | 0.0 | 0.0 | 0.00 | 0.08 | 0.00 | 63 | 1007.6 |
| 20260504015010 | 42 | 0 | 0.0 | 0.0 | 0.00 | 0.08 | 0.00 | 62 | 1007.6 |
| 20260504014531 | 42 | 0 | 0.0 | 0.0 | 0.00 | 0.08 | 0.00 | 60 | 1007.5 |
| 20260504014011 | 42 | 0 | 0.0 | 0.0 | 0.00 | 0.08 | 0.00 | 60 | 1007.4 |
| 20260504013510 | 42 | 0 | 0.0 | 0.0 | 0.00 | 0.08 | 0.00 | 60 | 1007.6 |
| 20260504013033 | 43 | 0 | 0.0 | 0.0 | 0.00 | 0.08 | 0.00 | 59 | 1007.7 |
| 20260504012515 | 43 | 0 | 0.0 | 0.0 | 0.00 | 0.08 | 0.00 | 59 | 1007.6 |
| 20260504012015 | 43 | 0 | 0.0 | 0.0 | 0.00 | 0.08 | 0.00 | 58 | 1007.6 |
| 20260504011528 | 44 | 0 | 0.0 | 2.0 | 0.00 | 0.08 | 0.00 | 57 | 1007.6 |
| 20260504011008 | 44 | 0 | 0.0 | 2.0 | 0.00 | 0.08 | 0.00 | 56 | 1007.6 |
| 20260504010508 | 45 | 323 | 0.0 | 2.0 | 0.00 | 0.08 | 0.00 | 55 | 1007.6 |
| 20260504010030 | 45 | 323 | 1.0 | 3.0 | 0.00 | 0.08 | 0.00 | 55 | 1007.5 |
| 20260504005510 | 45 | 323 | 1.0 | 3.0 | 0.00 | 0.11 | 0.00 | 54 | 1007.4 |
| 20260504005013 | 45 | 323 | 1.0 | 3.0 | 0.00 | 0.11 | 0.00 | 54 | 1007.3 |
| 20260504004532 | 45 | 323 | 0.0 | 4.0 | 0.00 | 0.11 | 0.00 | 54 | 1007.3 |
| 20260504004011 | 45 | 323 | 1.0 | 4.0 | 0.00 | 0.11 | 0.00 | 53 | 1007.2 |
| 20260504003515 | 45 | 332 | 1.0 | 3.0 | 0.00 | 0.11 | 0.00 | 54 | 1007.2 |
| 20260504003034 | 46 | 332 | 0.0 | 4.0 | 0.00 | 0.11 | 0.00 | 53 | 1007.0 |
| 20260504002510 | 46 | 332 | 0.0 | 4.0 | 0.00 | 0.11 | 0.00 | 52 | 1006.8 |
| 20260504002010 | 46 | 0 | 0.0 | 3.0 | 0.00 | 0.11 | 0.00 | 52 | 1006.8 |
| 20260504001529 | 46 | 333 | 0.0 | 2.0 | 0.00 | 0.11 | 0.00 | 51 | 1006.6 |
| 20260504001013 | 47 | 0 | 0.0 | 3.0 | 0.00 | 0.11 | 0.00 | 50 | 1006.7 |
| 20260504000508 | 47 | 333 | 0.0 | 4.0 | 0.00 | 0.11 | 0.00 | 50 | 1006.6 |
| 20260504000030 | 47 | 334 | 1.0 | 7.0 | 0.00 | 0.11 | 0.00 | 49 | 1006.6 |
| 20260503235508 | 47 | 0 | 1.0 | 7.0 | 0.00 | 0.13 | 0.00 | 49 | 1006.5 |
| 20260503235011 | 47 | 319 | 1.0 | 6.0 | 0.00 | 0.13 | 0.00 | 49 | 1006.2 |
| 20260503234543 | 47 | 319 | 1.0 | 8.0 | 0.00 | 0.13 | 0.00 | 49 | 1006.2 |
| 20260503234011 | 48 | 328 | 3.0 | 9.0 | 0.00 | 0.13 | 0.00 | 48 | 1006.1 |
| 20260503233510 | 48 | 335 | 3.0 | 9.0 | 0.00 | 0.13 | 0.00 | 48 | 1006.1 |
| 20260503233031 | 48 | 329 | 5.0 | 9.0 | 0.00 | 0.13 | 0.00 | 50 | 1006.1 |
| 20260503232509 | 48 | 351 | 3.0 | 7.0 | 0.00 | 0.13 | 0.00 | 50 | 1006.1 |
| 20260503232010 | 48 | 0 | 2.0 | 6.0 | 0.00 | 0.13 | 0.00 | 50 | 1005.9 |